Time,TemperatureF,DewpointF,PressureIn,WindDirection,WindDirectionDegrees,WindSpeedMPH,WindSpeedGustMPH,Humidity,HourlyPrecipIn,Conditions,Clouds,dailyrainin,SoftwareType,DateUTC
2013-08-22 00:01:00,72.7,59.4,29.67,ESE,116,3.1,3.1,63,0.00,,---,0.00,VWS V14.01,2013-08-22 05:01:00,
2013-08-22 00:06:00,72.5,59.2,29.67,ESE,116,0.0,0.0,63,0.00,,---,0.00,VWS V14.01,2013-08-22 05:06:00,
2013-08-22 00:11:00,72.3,59.0,29.67,ESE,116,0.0,0.0,63,0.00,,---,0.00,VWS V14.01,2013-08-22 05:11:00,
2013-08-22 00:16:00,72.1,58.9,29.67,ESE,116,0.0,0.0,63,0.00,,---,0.00,VWS V14.01,2013-08-22 05:16:00,
2013-08-22 00:21:00,71.8,58.5,29.67,ESE,116,2.7,2.7,63,0.00,,---,0.00,VWS V14.01,2013-08-22 05:21:00,
2013-08-22 00:26:00,71.6,58.3,29.67,ESE,116,0.0,0.0,63,0.00,,---,0.00,VWS V14.01,2013-08-22 05:26:00,
2013-08-22 00:31:00,71.4,58.8,29.67,ESE,116,3.6,3.6,64,0.00,,---,0.00,VWS V14.01,2013-08-22 05:31:00,
2013-08-22 00:36:00,71.4,58.8,29.67,ESE,103,3.1,3.6,64,0.00,,---,0.00,VWS V14.01,2013-08-22 05:36:00,
2013-08-22 00:41:00,71.2,59.3,29.67,ENE,68,4.9,4.9,66,0.00,,---,0.00,VWS V14.01,2013-08-22 05:41:00,
2013-08-22 00:46:00,71.1,59.1,29.67,ENE,67,2.7,4.0,66,0.00,,---,0.00,VWS V14.01,2013-08-22 05:46:00,
2013-08-22 00:51:00,71.1,59.1,29.67,ENE,67,0.0,3.1,66,0.00,,---,0.00,VWS V14.01,2013-08-22 05:51:00,
2013-08-22 00:56:00,71.2,59.3,29.67,ENE,67,0.0,0.0,66,0.00,,---,0.00,VWS V14.01,2013-08-22 05:56:00,
2013-08-22 01:01:00,71.2,59.3,29.67,ENE,67,0.0,0.0,66,0.00,,---,0.00,VWS V14.01,2013-08-22 06:01:00,
2013-08-22 01:06:00,71.1,59.1,29.67,ENE,67,0.0,0.0,66,0.00,,---,0.00,VWS V14.01,2013-08-22 06:06:00,
2013-08-22 01:11:00,71.1,59.1,29.67,ENE,67,0.0,0.0,66,0.00,,---,0.00,VWS V14.01,2013-08-22 06:11:00,
2013-08-22 01:16:00,71.2,58.7,29.67,ENE,67,0.0,0.0,64,0.00,,---,0.00,VWS V14.01,2013-08-22 06:16:00,
2013-08-22 01:20:00,71.4,58.8,29.67,ENE,67,0.0,0.0,64,0.00,,---,0.00,VWS V14.01,2013-08-22 06:20:00,
2013-08-22 01:25:00,71.2,58.7,29.67,ENE,67,0.0,0.0,64,0.00,,---,0.00,VWS V14.01,2013-08-22 06:25:00,
2013-08-22 01:30:00,70.7,58.2,29.67,ENE,67,0.0,0.0,64,0.00,,---,0.00,VWS V14.01,2013-08-22 06:30:00,
2013-08-22 01:35:00,70.5,58.6,29.67,ENE,67,0.0,0.0,66,0.00,,---,0.00,VWS V14.01,2013-08-22 06:35:00,
2013-08-22 01:40:00,70.5,58.6,29.67,ENE,67,0.0,0.0,66,0.00,,---,0.00,VWS V14.01,2013-08-22 06:40:00,
2013-08-22 01:45:00,70.7,58.2,29.67,ENE,67,0.0,0.0,64,0.00,,---,0.00,VWS V14.01,2013-08-22 06:45:00,
2013-08-22 01:50:00,70.7,58.2,29.67,ENE,67,0.0,0.0,64,0.00,,---,0.00,VWS V14.01,2013-08-22 06:50:00,
2013-08-22 01:55:00,70.7,58.2,29.67,ENE,67,0.0,0.0,64,0.00,,---,0.00,VWS V14.01,2013-08-22 06:55:00,
2013-08-22 02:00:00,70.5,58.0,29.67,ENE,67,3.1,3.1,64,0.00,,---,0.00,VWS V14.01,2013-08-22 07:00:00,
2013-08-22 02:05:00,70.5,58.0,29.67,ENE,67,0.0,0.0,64,0.00,,---,0.00,VWS V14.01,2013-08-22 07:05:00,
2013-08-22 02:10:00,70.7,57.5,29.67,ENE,67,0.0,0.0,63,0.00,,---,0.00,VWS V14.01,2013-08-22 07:10:00,
2013-08-22 02:15:00,71.2,58.0,29.67,ENE,67,0.0,0.0,63,0.00,,---,0.00,VWS V14.01,2013-08-22 07:15:00,
2013-08-22 02:20:00,70.9,57.7,29.67,ENE,67,0.0,0.0,63,0.00,,---,0.00,VWS V14.01,2013-08-22 07:20:00,
2013-08-22 02:25:00,69.8,57.9,29.67,ENE,67,0.0,0.0,66,0.00,,---,0.00,VWS V14.01,2013-08-22 07:25:00,
2013-08-22 02:30:00,69.3,58.0,29.67,ENE,67,0.0,0.0,68,0.00,,---,0.00,VWS V14.01,2013-08-22 07:30:00,
2013-08-22 02:35:00,69.3,58.7,29.67,ENE,67,0.0,0.0,69,0.00,,---,0.00,VWS V14.01,2013-08-22 07:35:00,
2013-08-22 02:40:00,69.4,58.2,29.67,ENE,67,0.0,0.0,68,0.00,,---,0.00,VWS V14.01,2013-08-22 07:40:00,
2013-08-22 02:45:00,69.8,57.9,29.67,ENE,67,0.0,0.0,66,0.00,,---,0.00,VWS V14.01,2013-08-22 07:45:00,
2013-08-22 02:50:00,70.0,58.1,29.67,ENE,67,0.0,0.0,66,0.00,,---,0.00,VWS V14.01,2013-08-22 07:50:00,
2013-08-22 02:55:00,70.0,58.1,29.67,ENE,67,0.0,0.0,66,0.00,,---,0.00,VWS V14.01,2013-08-22 07:55:00,
2013-08-22 03:00:00,69.8,57.9,29.67,ENE,67,0.0,0.0,66,0.00,,---,0.00,VWS V14.01,2013-08-22 08:00:00,
2013-08-22 03:05:00,69.8,57.9,29.67,ENE,67,0.0,0.0,66,0.00,,---,0.00,VWS V14.01,2013-08-22 08:05:00,
2013-08-22 03:10:00,70.0,57.5,29.67,ENE,67,0.0,0.0,64,0.00,,---,0.00,VWS V14.01,2013-08-22 08:10:00,
2013-08-22 03:15:00,70.0,57.5,29.67,ENE,67,0.0,0.0,64,0.00,,---,0.00,VWS V14.01,2013-08-22 08:15:00,
2013-08-22 03:20:00,69.8,57.9,29.67,ENE,67,0.0,0.0,66,0.00,,---,0.00,VWS V14.01,2013-08-22 08:20:00,
2013-08-22 03:25:00,69.4,58.2,29.67,ENE,67,0.0,0.0,68,0.00,,---,0.00,VWS V14.01,2013-08-22 08:25:00,
2013-08-22 03:30:00,69.3,58.0,29.67,ENE,67,0.0,0.0,68,0.00,,---,0.00,VWS V14.01,2013-08-22 08:30:00,
2013-08-22 03:35:00,69.1,57.9,29.67,ENE,67,0.0,0.0,68,0.00,,---,0.00,VWS V14.01,2013-08-22 08:35:00,
2013-08-22 03:40:00,68.5,57.4,29.67,ENE,67,0.0,0.0,68,0.00,,---,0.00,VWS V14.01,2013-08-22 08:40:00,
2013-08-22 03:45:00,68.0,58.1,29.67,ENE,67,0.0,0.0,70,0.00,,---,0.00,VWS V14.01,2013-08-22 08:45:00,
2013-08-22 03:50:00,67.3,58.0,29.67,ENE,67,0.0,0.0,72,0.00,,---,0.00,VWS V14.01,2013-08-22 08:50:00,
2013-08-22 03:55:00,66.7,58.6,29.67,ENE,67,0.0,0.0,75,0.00,,---,0.00,VWS V14.01,2013-08-22 08:55:00,
2013-08-22 04:00:00,66.6,59.0,29.67,ENE,67,0.0,0.0,76,0.00,,---,0.00,VWS V14.01,2013-08-22 09:00:00,
2013-08-22 04:05:00,66.7,59.7,29.67,ENE,67,0.0,0.0,78,0.00,,---,0.00,VWS V14.01,2013-08-22 09:05:00,
2013-08-22 04:10:00,66.9,60.4,29.67,ENE,67,0.0,0.0,80,0.00,,---,0.00,VWS V14.01,2013-08-22 09:10:00,
2013-08-22 04:15:00,67.3,60.7,29.67,ENE,67,3.6,4.5,80,0.00,,---,0.00,VWS V14.01,2013-08-22 09:15:00,
2013-08-22 04:20:00,67.3,60.2,29.67,ENE,67,3.6,3.6,78,0.00,,---,0.00,VWS V14.01,2013-08-22 09:20:00,
2013-08-22 04:25:00,67.3,60.2,29.67,ENE,67,0.0,0.0,78,0.00,,---,0.00,VWS V14.01,2013-08-22 09:25:00,
2013-08-22 04:30:00,67.1,60.0,29.67,ENE,67,0.0,0.0,78,0.00,,---,0.00,VWS V14.01,2013-08-22 09:30:00,
2013-08-22 04:35:00,67.1,60.6,29.67,ENE,67,0.0,0.0,80,0.00,,---,0.00,VWS V14.01,2013-08-22 09:35:00,
2013-08-22 04:40:00,67.1,61.1,29.67,ENE,67,0.0,0.0,81,0.00,,---,0.00,VWS V14.01,2013-08-22 09:40:00,
2013-08-22 04:45:00,67.3,60.7,29.67,ENE,67,0.0,0.0,80,0.00,,---,0.00,VWS V14.01,2013-08-22 09:45:00,
2013-08-22 04:50:00,67.1,60.0,29.67,ENE,67,0.0,0.0,78,0.00,,---,0.00,VWS V14.01,2013-08-22 09:50:00,
2013-08-22 04:55:00,66.7,60.2,29.67,ENE,67,0.0,0.0,80,0.00,,---,0.00,VWS V14.01,2013-08-22 09:55:00,
2013-08-22 05:00:00,66.7,61.8,29.67,ENE,67,0.0,0.0,84,0.00,,---,0.00,VWS V14.01,2013-08-22 10:00:00,
2013-08-22 05:05:00,66.7,61.2,29.67,ENE,67,0.0,0.0,82,0.00,,---,0.00,VWS V14.01,2013-08-22 10:05:00,
2013-08-22 05:10:00,66.7,61.2,29.67,ENE,67,0.0,0.0,82,0.00,,---,0.00,VWS V14.01,2013-08-22 10:10:00,
2013-08-22 05:15:00,66.7,60.7,29.67,ENE,67,0.0,0.0,81,0.00,,---,0.00,VWS V14.01,2013-08-22 10:15:00,
2013-08-22 05:20:00,66.6,60.6,29.67,ENE,67,0.0,0.0,81,0.00,,---,0.00,VWS V14.01,2013-08-22 10:20:00,
2013-08-22 05:25:00,66.7,61.2,29.67,ENE,67,0.0,0.0,82,0.00,,---,0.00,VWS V14.01,2013-08-22 10:25:00,
2013-08-22 05:30:00,66.9,61.4,29.67,ENE,67,0.0,0.0,82,0.00,,---,0.00,VWS V14.01,2013-08-22 10:30:00,
2013-08-22 05:35:00,66.9,61.4,29.67,ENE,67,0.0,0.0,82,0.00,,---,0.00,VWS V14.01,2013-08-22 10:35:00,
2013-08-22 05:40:00,66.9,61.4,29.67,ENE,67,0.0,0.0,82,0.00,,---,0.00,VWS V14.01,2013-08-22 10:40:00,
2013-08-22 05:45:00,66.9,61.4,29.67,ENE,67,4.0,4.0,82,0.00,,---,0.00,VWS V14.01,2013-08-22 10:45:00,
2013-08-22 07:27:00,67.5,64.4,29.67,NE,55,0.0,0.0,90,0.00,,---,0.00,VWS V14.01,2013-08-22 12:27:00,
2013-08-22 07:32:00,67.5,64.4,29.67,NE,55,0.0,0.0,90,0.00,,---,0.00,VWS V14.01,2013-08-22 12:32:00,
2013-08-22 07:37:00,67.8,64.8,29.67,NE,55,0.0,0.0,90,0.00,,---,0.00,VWS V14.01,2013-08-22 12:37:00,
2013-08-22 07:42:00,68.0,64.5,29.67,NE,55,0.0,0.0,88,0.00,,---,0.00,VWS V14.01,2013-08-22 12:42:00,
2013-08-22 07:47:00,68.0,64.5,29.70,NE,55,0.0,0.0,88,0.00,,---,0.00,VWS V14.01,2013-08-22 12:47:00,
2013-08-22 07:52:00,68.0,64.5,29.70,NE,55,0.0,0.0,88,0.00,,---,0.00,VWS V14.01,2013-08-22 12:52:00,
2013-08-22 07:57:00,68.4,65.3,29.70,NE,55,0.0,0.0,90,0.00,,---,0.00,VWS V14.01,2013-08-22 12:57:00,
2013-08-22 08:00:00,68.7,65.7,29.70,NE,55,0.0,0.0,90,0.00,,---,0.00,VWS V14.01,2013-08-22 13:00:00,
2013-08-22 08:05:00,69.4,66.9,29.70,NE,55,0.0,0.0,92,0.00,,---,0.00,VWS V14.01,2013-08-22 13:05:00,
2013-08-22 08:10:00,70.3,67.3,29.70,NE,55,3.1,3.1,90,0.00,,---,0.00,VWS V14.01,2013-08-22 13:10:00,
2013-08-22 08:15:00,71.1,66.5,29.70,NE,55,2.7,2.7,86,0.00,,---,0.00,VWS V14.01,2013-08-22 13:15:00,
2013-08-22 08:20:00,71.8,65.6,29.70,NE,55,0.0,0.0,81,0.00,,---,0.00,VWS V14.01,2013-08-22 13:20:00,
2013-08-22 08:25:00,72.3,65.6,29.70,NE,55,0.0,0.0,80,0.00,,---,0.00,VWS V14.01,2013-08-22 13:25:00,
2013-08-22 08:30:00,72.9,65.6,29.70,NE,55,0.0,0.0,78,0.00,,---,0.00,VWS V14.01,2013-08-22 13:30:00,
2013-08-22 08:35:00,73.4,64.4,29.70,NE,55,0.0,0.0,74,0.00,,---,0.00,VWS V14.01,2013-08-22 13:35:00,
2013-08-22 08:40:00,73.8,64.2,29.70,ENE,78,0.0,0.0,72,0.00,,---,0.00,VWS V14.01,2013-08-22 13:40:00,
2013-08-22 08:45:00,74.3,64.1,29.70,East,85,2.2,2.7,70,0.00,,---,0.00,VWS V14.01,2013-08-22 13:45:00,
2013-08-22 08:50:00,74.7,63.8,29.70,East,83,0.0,2.7,69,0.00,,---,0.00,VWS V14.01,2013-08-22 13:50:00,
2013-08-22 08:55:00,75.4,64.5,29.70,East,83,0.0,0.0,69,0.00,,---,0.00,VWS V14.01,2013-08-22 13:55:00,
2013-08-22 09:00:00,76.3,64.7,29.70,East,81,2.2,2.7,68,0.00,,---,0.00,VWS V14.01,2013-08-22 14:00:00,
2013-08-22 09:05:00,77.5,64.6,29.70,East,91,4.0,4.5,64,0.00,,---,0.00,VWS V14.01,2013-08-22 14:05:00,
2013-08-22 09:10:00,78.6,65.0,29.70,East,97,2.2,2.2,63,0.00,,---,0.00,VWS V14.01,2013-08-22 14:10:00,
2013-08-22 09:15:00,79.5,64.4,29.70,ESE,118,4.0,5.4,60,0.00,,---,0.00,VWS V14.01,2013-08-22 14:15:00,
2013-08-22 09:20:00,80.1,64.2,29.70,ESE,120,5.4,5.4,58,0.00,,---,0.00,VWS V14.01,2013-08-22 14:20:00,
2013-08-22 09:25:00,80.8,62.6,29.70,SE,132,2.7,4.0,54,0.00,,---,0.00,VWS V14.01,2013-08-22 14:25:00,
2013-08-22 09:30:00,81.5,62.5,29.70,SSE,153,3.6,3.6,52,0.00,,---,0.00,VWS V14.01,2013-08-22 14:30:00,
2013-08-22 09:35:00,82.0,62.1,29.70,South,181,3.1,3.1,51,0.00,,---,0.00,VWS V14.01,2013-08-22 14:35:00,
2013-08-22 09:40:00,82.9,62.1,29.70,SE,146,3.6,4.0,50,0.00,,---,0.00,VWS V14.01,2013-08-22 14:40:00,
2013-08-22 09:45:00,83.7,61.9,29.70,SSW,196,5.4,6.3,48,0.00,,---,0.00,VWS V14.01,2013-08-22 14:45:00,
2013-08-22 09:50:00,83.8,61.2,29.70,South,190,7.6,7.6,46,0.00,,---,0.00,VWS V14.01,2013-08-22 14:50:00,
2013-08-22 09:55:00,84.0,62.2,29.70,SSW,213,3.6,3.6,48,0.00,,---,0.00,VWS V14.01,2013-08-22 14:55:00,
2013-08-22 10:00:00,84.2,60.6,29.70,SW,220,5.8,8.1,45,0.00,,---,0.00,VWS V14.01,2013-08-22 15:00:00,
2013-08-22 10:05:00,84.6,60.9,29.70,SW,230,2.7,2.7,45,0.00,,---,0.00,VWS V14.01,2013-08-22 15:05:00,
2013-08-22 10:10:00,84.7,61.1,29.70,SSW,211,7.2,7.2,45,0.00,,---,0.00,VWS V14.01,2013-08-22 15:10:00,
2013-08-22 10:15:00,85.1,61.4,29.70,SSW,194,7.6,7.6,45,0.00,,---,0.00,VWS V14.01,2013-08-22 15:15:00,
2013-08-22 10:20:00,85.6,61.9,29.70,SW,215,6.3,6.3,45,0.00,,---,0.00,VWS V14.01,2013-08-22 15:20:00,
2013-08-22 10:25:00,85.8,61.1,29.70,SSW,197,3.6,3.6,44,0.00,,---,0.00,VWS V14.01,2013-08-22 15:25:00,
2013-08-22 10:30:00,86.0,61.2,29.70,SSW,205,2.2,3.6,44,0.00,,---,0.00,VWS V14.01,2013-08-22 15:30:00,
2013-08-22 10:35:00,86.0,61.2,29.70,SW,226,5.8,5.8,44,0.00,,---,0.00,VWS V14.01,2013-08-22 15:35:00,
2013-08-22 10:40:00,86.5,60.7,29.70,SW,218,3.6,3.6,42,0.00,,---,0.00,VWS V14.01,2013-08-22 15:40:00,
2013-08-22 10:45:00,86.5,61.7,29.70,South,181,4.0,4.0,44,0.00,,---,0.00,VWS V14.01,2013-08-22 15:45:00,
2013-08-22 10:50:00,86.9,61.1,29.70,WSW,249,5.4,5.4,42,0.00,,---,0.00,VWS V14.01,2013-08-22 15:50:00,
2013-08-22 10:55:00,87.1,61.2,29.70,SW,228,4.9,8.1,42,0.00,,---,0.00,VWS V14.01,2013-08-22 15:55:00,
2013-08-22 11:00:00,87.1,61.2,29.70,SW,236,5.4,5.4,42,0.00,,---,0.00,VWS V14.01,2013-08-22 16:00:00,
2013-08-22 11:05:00,87.3,61.4,29.70,SSW,199,2.7,4.0,42,0.00,,---,0.00,VWS V14.01,2013-08-22 16:05:00,
2013-08-22 11:10:00,87.6,61.7,29.70,SW,228,2.7,2.7,42,0.00,,---,0.00,VWS V14.01,2013-08-22 16:10:00,
2013-08-22 11:15:00,87.6,60.7,29.70,WSW,252,2.2,3.1,40,0.00,,---,0.00,VWS V14.01,2013-08-22 16:15:00,
2013-08-22 11:20:00,88.2,61.2,29.70,SSE,160,7.6,7.6,40,0.00,,---,0.00,VWS V14.01,2013-08-22 16:20:00,
2013-08-22 11:25:00,88.7,61.7,29.70,WSW,242,3.1,6.3,40,0.00,,---,0.00,VWS V14.01,2013-08-22 16:25:00,
2013-08-22 11:30:00,88.9,58.5,29.70,SW,225,2.7,4.0,36,0.00,,---,0.00,VWS V14.01,2013-08-22 16:30:00,
2013-08-22 11:35:00,89.1,59.8,29.70,SSE,155,3.6,3.6,38,0.00,,---,0.00,VWS V14.01,2013-08-22 16:35:00,
2013-08-22 11:40:00,89.4,59.0,29.70,SSE,147,5.8,6.3,36,0.00,,---,0.00,VWS V14.01,2013-08-22 16:40:00,
2013-08-22 11:45:00,89.8,56.9,29.70,SSE,162,3.6,8.1,33,0.00,,---,0.00,VWS V14.01,2013-08-22 16:45:00,
2013-08-22 11:50:00,90.1,57.2,29.70,WSW,249,2.7,2.7,33,0.00,,---,0.00,VWS V14.01,2013-08-22 16:50:00,
2013-08-22 11:55:00,90.5,57.5,29.70,SSE,152,4.9,4.9,33,0.00,,---,0.00,VWS V14.01,2013-08-22 16:55:00,
2013-08-22 12:00:00,91.0,56.7,29.70,South,180,5.4,5.4,32,0.00,,---,0.00,VWS V14.01,2013-08-22 17:00:00,
2013-08-22 12:05:00,90.9,55.2,29.67,SSW,199,2.2,3.6,30,0.00,,---,0.00,VWS V14.01,2013-08-22 17:05:00,
2013-08-22 12:10:00,91.0,55.3,29.67,WNW,286,3.6,3.6,30,0.00,,---,0.00,VWS V14.01,2013-08-22 17:10:00,
2013-08-22 12:15:00,90.9,55.2,29.67,SSE,161,4.0,5.4,30,0.00,,---,0.00,VWS V14.01,2013-08-22 17:15:00,
2013-08-22 12:20:00,90.7,55.0,29.67,WSW,248,6.3,6.7,30,0.00,,---,0.00,VWS V14.01,2013-08-22 17:20:00,
2013-08-22 12:25:00,91.0,55.3,29.67,South,188,6.3,6.3,30,0.00,,---,0.00,VWS V14.01,2013-08-22 17:25:00,
2013-08-22 12:30:00,90.7,55.0,29.67,SSE,167,8.1,8.1,30,0.00,,---,0.00,VWS V14.01,2013-08-22 17:30:00,
2013-08-22 12:35:00,90.1,54.5,29.67,ESE,118,3.6,3.6,30,0.00,,---,0.00,VWS V14.01,2013-08-22 17:35:00,
2013-08-22 12:40:00,90.7,55.0,29.67,ESE,122,2.7,4.0,30,0.00,,---,0.00,VWS V14.01,2013-08-22 17:40:00,
2013-08-22 12:45:00,91.4,55.6,29.67,SE,129,2.7,2.7,30,0.00,,---,0.00,VWS V14.01,2013-08-22 17:45:00,
2013-08-22 12:50:00,92.3,56.4,29.67,SE,134,7.2,8.1,30,0.00,,---,0.00,VWS V14.01,2013-08-22 17:50:00,
2013-08-22 12:55:00,92.7,56.7,29.67,ESE,116,8.3,8.7,30,0.00,,---,0.00,VWS V14.01,2013-08-22 17:55:00,
2013-08-22 13:00:00,92.5,56.6,29.67,East,88,3.6,3.6,30,0.00,,---,0.00,VWS V14.01,2013-08-22 18:00:00,
2013-08-22 13:05:00,92.3,56.4,29.67,ESE,102,8.7,8.7,30,0.00,,---,0.00,VWS V14.01,2013-08-22 18:05:00,
2013-08-22 13:10:00,92.5,55.2,29.67,SSE,166,6.7,8.3,28,0.00,,---,0.00,VWS V14.01,2013-08-22 18:10:00,
2013-08-22 13:15:00,92.8,55.5,29.64,ESE,118,8.7,8.7,28,0.00,,---,0.00,VWS V14.01,2013-08-22 18:15:00,
2013-08-22 13:20:00,93.0,55.6,29.64,SE,136,5.4,5.4,28,0.00,,---,0.00,VWS V14.01,2013-08-22 18:20:00,
2013-08-22 13:25:00,93.4,55.9,29.64,SSE,156,8.1,8.3,28,0.00,,---,0.00,VWS V14.01,2013-08-22 18:25:00,
2013-08-22 13:30:00,93.2,55.8,29.64,East,90,6.3,8.7,28,0.00,,---,0.00,VWS V14.01,2013-08-22 18:30:00,
2013-08-22 13:35:00,93.4,54.4,29.64,South,171,12.8,12.8,27,0.00,,---,0.00,VWS V14.01,2013-08-22 18:35:00,
2013-08-22 13:40:00,93.2,54.3,29.64,South,183,8.1,8.1,27,0.00,,---,0.00,VWS V14.01,2013-08-22 18:40:00,
2013-08-22 13:45:00,92.7,55.3,29.64,South,182,7.6,8.3,28,0.00,,---,0.00,VWS V14.01,2013-08-22 18:45:00,
2013-08-22 13:50:00,92.3,55.0,29.64,ESE,110,5.8,8.1,28,0.00,,---,0.00,VWS V14.01,2013-08-22 18:50:00,
2013-08-22 13:55:00,92.7,55.3,29.64,ESE,117,5.4,8.3,28,0.00,,---,0.00,VWS V14.01,2013-08-22 18:55:00,
2013-08-22 14:00:00,92.8,55.5,29.64,ESE,113,15.4,15.4,28,0.00,,---,0.00,VWS V14.01,2013-08-22 19:00:00,
2013-08-22 14:05:00,93.0,54.1,29.64,South,176,11.9,12.8,27,0.00,,---,0.00,VWS V14.01,2013-08-22 19:05:00,
2013-08-22 14:10:00,93.0,54.1,29.64,South,173,10.1,10.1,27,0.00,,---,0.00,VWS V14.01,2013-08-22 19:10:00,
2013-08-22 14:14:00,93.2,52.7,29.64,South,172,8.1,11.0,26,0.00,,---,0.00,VWS V14.01,2013-08-22 19:14:00,
2013-08-22 14:19:00,93.4,52.9,29.64,South,184,13.2,13.2,26,0.00,,---,0.00,VWS V14.01,2013-08-22 19:19:00,
2013-08-22 14:24:00,93.4,52.9,29.64,SSE,159,8.1,8.1,26,0.00,,---,0.00,VWS V14.01,2013-08-22 19:24:00,
2013-08-22 14:29:00,93.6,53.0,29.64,South,174,8.7,8.7,26,0.00,,---,0.00,VWS V14.01,2013-08-22 19:29:00,
2013-08-22 14:34:00,93.6,53.0,29.64,SSW,197,10.1,15.0,26,0.00,,---,0.00,VWS V14.01,2013-08-22 19:34:00,
2013-08-22 14:39:00,93.6,53.0,29.64,SE,142,10.5,10.5,26,0.00,,---,0.00,VWS V14.01,2013-08-22 19:39:00,
2013-08-22 14:44:00,93.6,53.0,29.64,SSW,194,8.7,10.5,26,0.00,,---,0.00,VWS V14.01,2013-08-22 19:44:00,
2013-08-22 14:49:00,93.4,52.9,29.64,South,178,8.3,8.3,26,0.00,,---,0.00,VWS V14.01,2013-08-22 19:49:00,
2013-08-22 14:54:00,93.4,52.9,29.64,SW,225,12.3,13.2,26,0.00,,---,0.00,VWS V14.01,2013-08-22 19:54:00,
2013-08-22 14:59:00,93.4,52.9,29.64,SW,223,6.3,8.7,26,0.00,,---,0.00,VWS V14.01,2013-08-22 19:59:00,
2013-08-22 15:04:00,93.0,54.1,29.61,SW,236,3.6,8.1,27,0.00,,---,0.00,VWS V14.01,2013-08-22 20:04:00,
2013-08-22 15:09:00,93.2,52.7,29.61,SSW,194,7.6,9.2,26,0.00,,---,0.00,VWS V14.01,2013-08-22 20:09:00,
2013-08-22 15:14:00,93.6,53.0,29.61,South,169,14.1,14.5,26,0.00,,---,0.00,VWS V14.01,2013-08-22 20:14:00,
2013-08-22 15:19:00,93.6,53.0,29.61,SW,230,7.6,8.1,26,0.00,,---,0.00,VWS V14.01,2013-08-22 20:19:00,
2013-08-22 15:24:00,93.0,54.1,29.61,SW,233,5.8,8.7,27,0.00,,---,0.00,VWS V14.01,2013-08-22 20:24:00,
2013-08-22 15:29:00,92.8,54.0,29.61,South,176,8.1,10.5,27,0.00,,---,0.00,VWS V14.01,2013-08-22 20:29:00,
2013-08-22 15:34:00,93.0,54.1,29.61,South,169,6.7,10.5,27,0.00,,---,0.00,VWS V14.01,2013-08-22 20:34:00,
2013-08-22 15:39:00,92.8,54.0,29.61,SSW,197,5.4,8.3,27,0.00,,---,0.00,VWS V14.01,2013-08-22 20:39:00,
2013-08-22 15:44:00,93.0,54.1,29.61,South,172,8.1,10.1,27,0.00,,---,0.00,VWS V14.01,2013-08-22 20:44:00,
2013-08-22 15:49:00,93.2,52.7,29.61,West,261,10.1,14.1,26,0.00,,---,0.00,VWS V14.01,2013-08-22 20:49:00,
2013-08-22 15:54:00,93.4,52.9,29.61,SSW,213,10.5,10.5,26,0.00,,---,0.00,VWS V14.01,2013-08-22 20:54:00,
2013-08-22 15:59:00,93.7,53.2,29.61,SSW,208,8.1,11.0,26,0.00,,---,0.00,VWS V14.01,2013-08-22 20:59:00,
2013-08-22 16:04:00,94.1,53.5,29.61,South,185,10.5,10.5,26,0.00,,---,0.00,VWS V14.01,2013-08-22 21:04:00,
2013-08-22 16:09:00,94.3,53.6,29.61,SSW,205,8.7,10.5,26,0.00,,---,0.00,VWS V14.01,2013-08-22 21:09:00,
2013-08-22 16:14:00,94.8,54.1,29.61,SSW,209,9.6,10.5,26,0.00,,---,0.00,VWS V14.01,2013-08-22 21:14:00,
2013-08-22 16:19:00,94.8,54.1,29.58,SW,215,6.3,8.3,26,0.00,,---,0.00,VWS V14.01,2013-08-22 21:19:00,
2013-08-22 16:24:00,94.8,54.1,29.58,SW,233,5.4,8.7,26,0.00,,---,0.00,VWS V14.01,2013-08-22 21:24:00,
2013-08-22 16:29:00,95.0,54.2,29.58,SW,228,5.8,8.1,26,0.00,,---,0.00,VWS V14.01,2013-08-22 21:29:00,
2013-08-22 16:34:00,95.2,52.7,29.58,SW,225,5.8,12.3,24,0.00,,---,0.00,VWS V14.01,2013-08-22 21:34:00,
2013-08-22 16:39:00,95.4,52.9,29.58,South,173,5.4,5.8,24,0.00,,---,0.00,VWS V14.01,2013-08-22 21:39:00,
2013-08-22 16:44:00,95.5,53.0,29.58,SSE,166,6.3,10.1,24,0.00,,---,0.00,VWS V14.01,2013-08-22 21:44:00,
2013-08-22 16:49:00,95.7,53.2,29.58,SSW,198,11.0,12.3,24,0.00,,---,0.00,VWS V14.01,2013-08-22 21:49:00,
2013-08-22 16:54:00,96.1,53.5,29.58,SSE,162,12.3,15.0,24,0.00,,---,0.00,VWS V14.01,2013-08-22 21:54:00,
2013-08-22 16:59:00,96.3,53.6,29.58,South,176,8.1,12.8,24,0.00,,---,0.00,VWS V14.01,2013-08-22 21:59:00,
2013-08-22 17:04:00,96.3,53.6,29.58,South,179,12.8,12.8,24,0.00,,---,0.00,VWS V14.01,2013-08-22 22:04:00,
2013-08-22 17:09:00,95.7,53.2,29.58,SSW,201,5.4,9.2,24,0.00,,---,0.00,VWS V14.01,2013-08-22 22:09:00,
2013-08-22 17:14:00,94.8,52.4,29.58,SSW,205,9.6,10.5,24,0.00,,---,0.00,VWS V14.01,2013-08-22 22:14:00,
2013-08-22 17:19:00,94.3,52.0,29.58,South,187,12.8,12.8,24,0.00,,---,0.00,VWS V14.01,2013-08-22 22:19:00,
2013-08-22 17:24:00,93.9,51.7,29.58,SSW,204,10.5,11.0,24,0.00,,---,0.00,VWS V14.01,2013-08-22 22:24:00,
2013-08-22 17:29:00,93.9,53.3,29.58,SSW,203,8.1,8.7,26,0.00,,---,0.00,VWS V14.01,2013-08-22 22:29:00,
2013-08-22 17:34:00,94.5,53.8,29.58,South,179,10.5,10.5,26,0.00,,---,0.00,VWS V14.01,2013-08-22 22:34:00,
2013-08-22 17:39:00,95.0,52.6,29.58,SW,221,7.6,9.2,24,0.00,,---,0.00,VWS V14.01,2013-08-22 22:39:00,
2013-08-22 17:44:00,95.4,52.9,29.58,SW,225,3.6,10.1,24,0.00,,---,0.00,VWS V14.01,2013-08-22 22:44:00,
2013-08-22 17:49:00,95.4,52.9,29.58,SW,233,5.4,5.8,24,0.00,,---,0.00,VWS V14.01,2013-08-22 22:49:00,
2013-08-22 17:54:00,95.4,52.9,29.58,SE,131,5.8,7.6,24,0.00,,---,0.00,VWS V14.01,2013-08-22 22:54:00,
2013-08-22 17:59:00,95.0,52.6,29.58,South,175,6.3,8.3,24,0.00,,---,0.00,VWS V14.01,2013-08-22 22:59:00,
2013-08-22 18:04:00,94.8,52.4,29.55,SW,214,8.1,8.7,24,0.00,,---,0.00,VWS V14.01,2013-08-22 23:04:00,
2013-08-22 18:09:00,94.1,51.8,29.55,South,179,7.6,8.3,24,0.00,,---,0.00,VWS V14.01,2013-08-22 23:09:00,
2013-08-22 18:14:00,93.6,53.0,29.55,SSE,168,8.1,8.7,26,0.00,,---,0.00,VWS V14.01,2013-08-22 23:14:00,
2013-08-22 18:19:00,93.4,52.9,29.55,SSE,166,5.4,5.4,26,0.00,,---,0.00,VWS V14.01,2013-08-22 23:19:00,
2013-08-22 18:24:00,93.0,52.6,29.55,SSE,150,5.8,7.6,26,0.00,,---,0.00,VWS V14.01,2013-08-22 23:24:00,
2013-08-22 18:29:00,92.7,52.3,29.55,SSE,150,6.3,7.6,26,0.00,,---,0.00,VWS V14.01,2013-08-22 23:29:00,
2013-08-22 18:34:00,92.8,52.4,29.55,SSE,158,8.1,8.1,26,0.00,,---,0.00,VWS V14.01,2013-08-22 23:34:00,
2013-08-22 18:39:00,93.6,53.0,29.55,SSE,159,5.4,7.6,26,0.00,,---,0.00,VWS V14.01,2013-08-22 23:39:00,
2013-08-22 18:44:00,93.7,53.2,29.55,SSE,160,4.9,5.8,26,0.00,,---,0.00,VWS V14.01,2013-08-22 23:44:00,
2013-08-22 18:49:00,93.9,53.3,29.55,SSE,152,5.8,6.3,26,0.00,,---,0.00,VWS V14.01,2013-08-22 23:49:00,
2013-08-22 18:54:00,93.9,53.3,29.55,SE,144,5.8,6.3,26,0.00,,---,0.00,VWS V14.01,2013-08-22 23:54:00,
2013-08-22 18:59:00,93.9,53.3,29.55,SSE,151,4.0,4.9,26,0.00,,---,0.00,VWS V14.01,2013-08-22 23:59:00,
2013-08-22 19:04:00,93.9,53.3,29.55,SSE,163,5.8,6.7,26,0.00,,---,0.00,VWS V14.01,2013-08-23 00:04:00,
2013-08-22 19:09:00,93.9,53.3,29.55,SE,141,4.9,6.3,26,0.00,,---,0.00,VWS V14.01,2013-08-23 00:09:00,
2013-08-22 19:14:00,93.2,52.7,29.55,ESE,118,4.0,6.7,26,0.00,,---,0.00,VWS V14.01,2013-08-23 00:14:00,
2013-08-22 19:19:00,92.3,52.0,29.55,ESE,105,5.8,8.3,26,0.00,,---,0.00,VWS V14.01,2013-08-23 00:19:00,
2013-08-22 19:24:00,91.8,53.1,29.55,ESE,117,6.3,6.7,27,0.00,,---,0.00,VWS V14.01,2013-08-23 00:24:00,
2013-08-22 19:29:00,91.0,52.5,29.55,ESE,109,3.6,5.8,27,0.00,,---,0.00,VWS V14.01,2013-08-23 00:29:00,
2013-08-22 19:34:00,90.3,53.3,29.55,East,97,6.3,6.3,28,0.00,,---,0.00,VWS V14.01,2013-08-23 00:34:00,
2013-08-22 19:39:00,89.8,52.8,29.55,ESE,108,6.3,6.3,28,0.00,,---,0.00,VWS V14.01,2013-08-23 00:39:00,
2013-08-22 19:44:00,89.2,53.8,29.55,ESE,117,5.4,5.8,30,0.00,,---,0.00,VWS V14.01,2013-08-23 00:44:00,
2013-08-22 19:49:00,88.7,53.3,29.55,East,91,5.8,5.8,30,0.00,,---,0.00,VWS V14.01,2013-08-23 00:49:00,
2013-08-22 19:54:00,88.2,54.2,29.55,ESE,102,5.4,5.4,32,0.00,,---,0.00,VWS V14.01,2013-08-23 00:54:00,
2013-08-22 19:59:00,87.6,55.0,29.55,ESE,112,5.8,6.3,33,0.00,,---,0.00,VWS V14.01,2013-08-23 00:59:00,
2013-08-22 20:04:00,87.3,55.9,29.58,ESE,110,4.9,5.4,34,0.00,,---,0.00,VWS V14.01,2013-08-23 01:04:00,
2013-08-22 20:09:00,86.9,56.8,29.58,ESE,109,5.4,5.8,36,0.00,,---,0.00,VWS V14.01,2013-08-23 01:09:00,
2013-08-22 20:14:00,86.5,56.4,29.58,ESE,104,5.4,6.7,36,0.00,,---,0.00,VWS V14.01,2013-08-23 01:14:00,
2013-08-22 20:19:00,86.0,57.1,29.58,ESE,118,5.8,5.8,38,0.00,,---,0.00,VWS V14.01,2013-08-23 01:19:00,
2013-08-22 20:24:00,85.6,57.9,29.58,ESE,102,4.0,5.4,39,0.00,,---,0.00,VWS V14.01,2013-08-23 01:24:00,
2013-08-22 20:29:00,85.3,58.6,29.58,ESE,110,6.3,6.3,40,0.00,,---,0.00,VWS V14.01,2013-08-23 01:29:00,
2013-08-22 20:34:00,84.9,59.3,29.58,ESE,108,5.8,5.8,42,0.00,,---,0.00,VWS V14.01,2013-08-23 01:34:00,
2013-08-22 20:39:00,84.6,59.0,29.58,East,101,5.8,5.8,42,0.00,,---,0.00,VWS V14.01,2013-08-23 01:39:00,
2013-08-22 20:44:00,84.2,58.6,29.58,ESE,102,4.0,4.9,42,0.00,,---,0.00,VWS V14.01,2013-08-23 01:44:00,
2013-08-22 20:49:00,83.8,59.3,29.58,East,91,3.6,5.8,44,0.00,,---,0.00,VWS V14.01,2013-08-23 01:49:00,
2013-08-22 20:54:00,83.5,59.0,29.58,East,82,3.6,4.9,44,0.00,,---,0.00,VWS V14.01,2013-08-23 01:54:00,
2013-08-22 20:59:00,83.1,58.7,29.58,East,83,5.8,5.8,44,0.00,,---,0.00,VWS V14.01,2013-08-23 01:59:00,
2013-08-22 21:04:00,82.8,59.3,29.58,East,91,5.8,5.8,45,0.00,,---,0.00,VWS V14.01,2013-08-23 02:04:00,
2013-08-22 21:09:00,82.6,59.1,29.58,East,95,5.4,5.4,45,0.00,,---,0.00,VWS V14.01,2013-08-23 02:09:00,
2013-08-22 21:14:00,82.4,59.0,29.58,East,86,5.4,5.4,45,0.00,,---,0.00,VWS V14.01,2013-08-23 02:14:00,
2013-08-22 21:19:00,82.0,59.5,29.58,East,87,4.0,4.5,46,0.00,,---,0.00,VWS V14.01,2013-08-23 02:19:00,
2013-08-22 21:24:00,81.9,59.4,29.58,East,92,7.2,7.2,46,0.00,,---,0.00,VWS V14.01,2013-08-23 02:24:00,
2013-08-22 21:29:00,81.7,59.2,29.58,East,96,5.4,5.4,46,0.00,,---,0.00,VWS V14.01,2013-08-23 02:29:00,
2013-08-22 21:34:00,81.3,58.9,29.58,East,96,5.4,5.4,46,0.00,,---,0.00,VWS V14.01,2013-08-23 02:34:00,
2013-08-22 21:39:00,81.0,58.6,29.58,East,99,5.8,5.8,46,0.00,,---,0.00,VWS V14.01,2013-08-23 02:39:00,
2013-08-22 21:44:00,80.8,59.3,29.58,East,92,5.4,5.4,48,0.00,,---,0.00,VWS V14.01,2013-08-23 02:44:00,
2013-08-22 21:49:00,80.8,59.3,29.61,East,91,5.4,5.8,48,0.00,,---,0.00,VWS V14.01,2013-08-23 02:49:00,
2013-08-22 21:54:00,80.6,60.0,29.61,ENE,75,6.3,8.3,50,0.00,,---,0.00,VWS V14.01,2013-08-23 02:54:00,
2013-08-22 21:59:00,80.4,61.5,29.61,East,79,7.6,7.6,52,0.00,,---,0.00,VWS V14.01,2013-08-23 02:59:00,
2013-08-22 22:04:00,80.2,62.1,29.61,ENE,77,7.2,7.2,54,0.00,,---,0.00,VWS V14.01,2013-08-23 03:04:00,
2013-08-22 22:09:00,80.1,62.7,29.61,East,90,7.2,10.1,56,0.00,,---,0.00,VWS V14.01,2013-08-23 03:09:00,
2013-08-22 22:14:00,80.1,62.7,29.61,East,93,7.2,8.7,56,0.00,,---,0.00,VWS V14.01,2013-08-23 03:14:00,
2013-08-22 22:19:00,80.1,63.5,29.61,East,99,6.3,8.3,57,0.00,,---,0.00,VWS V14.01,2013-08-23 03:19:00,
2013-08-22 22:24:00,79.7,63.1,29.61,East,90,5.4,7.6,57,0.00,,---,0.00,VWS V14.01,2013-08-23 03:24:00,
2013-08-22 22:29:00,79.5,63.7,29.61,ESE,102,5.4,9.6,58,0.00,,---,0.00,VWS V14.01,2013-08-23 03:29:00,
2013-08-22 22:34:00,79.5,64.4,29.61,East,92,8.1,8.1,60,0.00,,---,0.00,VWS V14.01,2013-08-23 03:34:00,
2013-08-22 22:39:00,79.5,64.4,29.61,East,96,5.8,7.2,60,0.00,,---,0.00,VWS V14.01,2013-08-23 03:39:00,
2013-08-22 22:43:00,79.3,64.3,29.61,East,98,5.4,7.6,60,0.00,,---,0.00,VWS V14.01,2013-08-23 03:43:00,
2013-08-22 22:48:00,79.3,64.3,29.61,East,90,5.8,6.3,60,0.00,,---,0.00,VWS V14.01,2013-08-23 03:48:00,
2013-08-22 22:53:00,79.3,64.3,29.61,ESE,102,6.3,6.3,60,0.00,,---,0.00,VWS V14.01,2013-08-23 03:53:00,
2013-08-22 22:58:00,79.0,64.6,29.61,East,98,5.4,7.6,62,0.00,,---,0.00,VWS V14.01,2013-08-23 03:58:00,
2013-08-22 23:01:00,79.0,64.6,29.61,East,96,6.3,6.3,62,0.00,,---,0.00,VWS V14.01,2013-08-23 04:01:00,
2013-08-22 23:06:00,78.8,64.5,29.61,East,86,6.3,7.2,62,0.00,,---,0.00,VWS V14.01,2013-08-23 04:06:00,
2013-08-22 23:11:00,78.6,65.0,29.61,East,93,4.5,8.1,63,0.00,,---,0.00,VWS V14.01,2013-08-23 04:11:00,
2013-08-22 23:16:00,78.6,65.0,29.64,ESE,115,6.3,6.3,63,0.00,,---,0.00,VWS V14.01,2013-08-23 04:16:00,
2013-08-22 23:21:00,78.6,65.7,29.64,ENE,75,6.3,6.3,64,0.00,,---,0.00,VWS V14.01,2013-08-23 04:21:00,
2013-08-22 23:26:00,78.6,65.7,29.64,East,80,6.3,8.7,64,0.00,,---,0.00,VWS V14.01,2013-08-23 04:26:00,
2013-08-22 23:31:00,78.4,65.5,29.64,East,101,5.8,8.3,64,0.00,,---,0.00,VWS V14.01,2013-08-23 04:31:00,
2013-08-22 23:36:00,78.4,65.5,29.64,East,98,7.6,7.6,64,0.00,,---,0.00,VWS V14.01,2013-08-23 04:36:00,
2013-08-22 23:41:00,78.3,66.0,29.64,East,96,5.4,7.6,66,0.00,,---,0.00,VWS V14.01,2013-08-23 04:41:00,
2013-08-22 23:46:00,78.3,66.0,29.64,East,88,4.0,4.9,66,0.00,,---,0.00,VWS V14.01,2013-08-23 04:46:00,
2013-08-22 23:51:00,78.1,65.8,29.64,ESE,112,4.0,4.9,66,0.00,,---,0.00,VWS V14.01,2013-08-23 04:51:00,
2013-08-22 23:56:00,78.1,65.8,29.64,SE,131,5.4,5.4,66,0.00,,---,0.00,VWS V14.01,2013-08-23 04:56:00,